Location: Olsztyn
(53.7767°N, 20.4765°E)
Time: 03:21:43
(UTC+02:00)

A-11 Canister half - Pass Details

Date: 31 January 2022
Orbit: 1513 x 1686 km, 47.2° (Epoch: 24 May)

Event Time Altitude Azimuth Distance (km) Brightness Sun altitude
Rises 13:57:28 0° 204° (SSW) 4,814 13.5 14.0°
Reaches altitude 10° 14:01:11 10° 193° (SSW) 3,803 12.8 13.7°
Maximum altitude 14:08:49 28° 140° (SE) 2,622 10.6 13.1°
Drops below altitude 10° 14:16:16 10° 87° (E) 3,714 10.7 12.5°
Sets 14:19:50 0° 76° (ENE) 4,682 11.1 12.1°
